Index of /20260414/WXO-DD/model_gdps/15km/12/144
Name Last modified Size Description
Parent Directory -
20260414T12Z_MSC_GDPS_AbsoluteVorticity_IsbL-0200_LatLon0.15_PT144H.grib2 2026-04-14 16:33 1.5M
20260414T12Z_MSC_GDPS_AbsoluteVorticity_IsbL-0250_LatLon0.15_PT144H.grib2 2026-04-14 16:33 1.3M
20260414T12Z_MSC_GDPS_AbsoluteVorticity_IsbL-0500_LatLon0.15_PT144H.grib2 2026-04-14 16:33 1.5M
20260414T12Z_MSC_GDPS_AbsoluteVorticity_IsbL-0700_LatLon0.15_PT144H.grib2 2026-04-14 16:33 1.6M
20260414T12Z_MSC_GDPS_AbsoluteVorticity_IsbL-0850_LatLon0.15_PT144H.grib2 2026-04-14 16:33 1.6M
20260414T12Z_MSC_GDPS_AirTemp-Max_AGL-2m_LatLon0.15_PT144H.grib2 2026-04-14 16:33 744K
20260414T12Z_MSC_GDPS_AirTemp-Min_AGL-2m_LatLon0.15_PT144H.grib2 2026-04-14 16:33 788K
20260414T12Z_MSC_GDPS_AirTemp_AGL-120m_LatLon0.15_PT144H.grib2 2026-04-14 16:33 906K
20260414T12Z_MSC_GDPS_AirTemp_AGL-2m_LatLon0.15_PT144H.grib2 2026-04-14 16:33 1.0M
20260414T12Z_MSC_GDPS_AirTemp_AGL-40m_LatLon0.15_PT144H.grib2 2026-04-14 16:33 808K
20260414T12Z_MSC_GDPS_AirTemp_AGL-80m_LatLon0.15_PT144H.grib2 2026-04-14 16:33 914K
20260414T12Z_MSC_GDPS_AirTemp_IsbL-0001_LatLon0.15_PT144H.grib2 2026-04-14 16:33 702K
20260414T12Z_MSC_GDPS_AirTemp_IsbL-0005_LatLon0.15_PT144H.grib2 2026-04-14 16:33 691K
20260414T12Z_MSC_GDPS_AirTemp_IsbL-0010_LatLon0.15_PT144H.grib2 2026-04-14 16:33 760K
20260414T12Z_MSC_GDPS_AirTemp_IsbL-0020_LatLon0.15_PT144H.grib2 2026-04-14 16:33 702K
20260414T12Z_MSC_GDPS_AirTemp_IsbL-0030_LatLon0.15_PT144H.grib2 2026-04-14 16:33 754K
20260414T12Z_MSC_GDPS_AirTemp_IsbL-0050_LatLon0.15_PT144H.grib2 2026-04-14 16:33 817K
20260414T12Z_MSC_GDPS_AirTemp_IsbL-0100_LatLon0.15_PT144H.grib2 2026-04-14 16:33 958K
20260414T12Z_MSC_GDPS_AirTemp_IsbL-0150_LatLon0.15_PT144H.grib2 2026-04-14 16:33 1.0M
20260414T12Z_MSC_GDPS_AirTemp_IsbL-0175_LatLon0.15_PT144H.grib2 2026-04-14 16:33 969K
20260414T12Z_MSC_GDPS_AirTemp_IsbL-0200_LatLon0.15_PT144H.grib2 2026-04-14 16:33 1.0M
20260414T12Z_MSC_GDPS_AirTemp_IsbL-0225_LatLon0.15_PT144H.grib2 2026-04-14 16:33 1.0M
20260414T12Z_MSC_GDPS_AirTemp_IsbL-0250_LatLon0.15_PT144H.grib2 2026-04-14 16:33 1.0M
20260414T12Z_MSC_GDPS_AirTemp_IsbL-0275_LatLon0.15_PT144H.grib2 2026-04-14 16:33 1.0M
20260414T12Z_MSC_GDPS_AirTemp_IsbL-0300_LatLon0.15_PT144H.grib2 2026-04-14 16:33 1.0M
20260414T12Z_MSC_GDPS_AirTemp_IsbL-0350_LatLon0.15_PT144H.grib2 2026-04-14 16:33 928K
20260414T12Z_MSC_GDPS_AirTemp_IsbL-0400_LatLon0.15_PT144H.grib2 2026-04-14 16:33 939K
20260414T12Z_MSC_GDPS_AirTemp_IsbL-0450_LatLon0.15_PT144H.grib2 2026-04-14 16:33 962K
20260414T12Z_MSC_GDPS_AirTemp_IsbL-0500_LatLon0.15_PT144H.grib2 2026-04-14 16:33 1.0M
20260414T12Z_MSC_GDPS_AirTemp_IsbL-0550_LatLon0.15_PT144H.grib2 2026-04-14 16:33 802K
20260414T12Z_MSC_GDPS_AirTemp_IsbL-0600_LatLon0.15_PT144H.grib2 2026-04-14 16:33 898K
20260414T12Z_MSC_GDPS_AirTemp_IsbL-0650_LatLon0.15_PT144H.grib2 2026-04-14 16:33 929K
20260414T12Z_MSC_GDPS_AirTemp_IsbL-0700_LatLon0.15_PT144H.grib2 2026-04-14 16:33 962K
20260414T12Z_MSC_GDPS_AirTemp_IsbL-0750_LatLon0.15_PT144H.grib2 2026-04-14 16:33 1.0M
20260414T12Z_MSC_GDPS_AirTemp_IsbL-0800_LatLon0.15_PT144H.grib2 2026-04-14 16:33 1.1M
20260414T12Z_MSC_GDPS_AirTemp_IsbL-0850_LatLon0.15_PT144H.grib2 2026-04-14 16:33 1.1M
20260414T12Z_MSC_GDPS_AirTemp_IsbL-0875_LatLon0.15_PT144H.grib2 2026-04-14 16:33 1.2M
20260414T12Z_MSC_GDPS_AirTemp_IsbL-0900_LatLon0.15_PT144H.grib2 2026-04-14 16:33 1.2M
20260414T12Z_MSC_GDPS_AirTemp_IsbL-0925_LatLon0.15_PT144H.grib2 2026-04-14 16:33 1.1M
20260414T12Z_MSC_GDPS_AirTemp_IsbL-0950_LatLon0.15_PT144H.grib2 2026-04-14 16:33 1.1M
20260414T12Z_MSC_GDPS_AirTemp_IsbL-0970_LatLon0.15_PT144H.grib2 2026-04-14 16:33 1.1M
20260414T12Z_MSC_GDPS_AirTemp_IsbL-0985_LatLon0.15_PT144H.grib2 2026-04-14 16:33 1.1M
20260414T12Z_MSC_GDPS_AirTemp_IsbL-1000_LatLon0.15_PT144H.grib2 2026-04-14 16:33 1.1M
20260414T12Z_MSC_GDPS_AirTemp_IsbL-1015_LatLon0.15_PT144H.grib2 2026-04-14 16:33 1.1M
20260414T12Z_MSC_GDPS_Albedo_Sfc_LatLon0.15_PT144H.grib2 2026-04-14 16:33 243K
20260414T12Z_MSC_GDPS_CAPE_Sfc_LatLon0.15_PT144H.grib2 2026-04-14 16:33 3.8M
20260414T12Z_MSC_GDPS_CIN_Sfc_LatLon0.15_PT144H.grib2 2026-04-14 16:33 2.9M
20260414T12Z_MSC_GDPS_CloudWater_EAtm_LatLon0.15_PT144H.grib2 2026-04-14 16:33 533K
20260414T12Z_MSC_GDPS_ConvectivePrecip-Accum_Sfc_LatLon0.15_PT144H.grib2 2026-04-14 16:33 3.6M
20260414T12Z_MSC_GDPS_DewPointDepression_AGL-2m_LatLon0.15_PT144H.grib2 2026-04-14 16:33 748K
20260414T12Z_MSC_GDPS_DewPointDepression_IsbL-0010_LatLon0.15_PT144H.grib2 2026-04-14 16:33 4.9K
20260414T12Z_MSC_GDPS_DewPointDepression_IsbL-0020_LatLon0.15_PT144H.grib2 2026-04-14 16:33 57K
20260414T12Z_MSC_GDPS_DewPointDepression_IsbL-0030_LatLon0.15_PT144H.grib2 2026-04-14 16:33 69K
20260414T12Z_MSC_GDPS_DewPointDepression_IsbL-0050_LatLon0.15_PT144H.grib2 2026-04-14 16:33 324K
20260414T12Z_MSC_GDPS_DewPointDepression_IsbL-0100_LatLon0.15_PT144H.grib2 2026-04-14 16:33 376K
20260414T12Z_MSC_GDPS_DewPointDepression_IsbL-0150_LatLon0.15_PT144H.grib2 2026-04-14 16:33 463K
20260414T12Z_MSC_GDPS_DewPointDepression_IsbL-0175_LatLon0.15_PT144H.grib2 2026-04-14 16:33 536K
20260414T12Z_MSC_GDPS_DewPointDepression_IsbL-0200_LatLon0.15_PT144H.grib2 2026-04-14 16:33 629K
20260414T12Z_MSC_GDPS_DewPointDepression_IsbL-0225_LatLon0.15_PT144H.grib2 2026-04-14 16:33 752K
20260414T12Z_MSC_GDPS_DewPointDepression_IsbL-0250_LatLon0.15_PT144H.grib2 2026-04-14 16:33 853K
20260414T12Z_MSC_GDPS_DewPointDepression_IsbL-0275_LatLon0.15_PT144H.grib2 2026-04-14 16:33 874K
20260414T12Z_MSC_GDPS_DewPointDepression_IsbL-0300_LatLon0.15_PT144H.grib2 2026-04-14 16:33 919K
20260414T12Z_MSC_GDPS_DewPointDepression_IsbL-0350_LatLon0.15_PT144H.grib2 2026-04-14 16:33 958K
20260414T12Z_MSC_GDPS_DewPointDepression_IsbL-0400_LatLon0.15_PT144H.grib2 2026-04-14 16:33 1.0M
20260414T12Z_MSC_GDPS_DewPointDepression_IsbL-0450_LatLon0.15_PT144H.grib2 2026-04-14 16:33 1.0M
20260414T12Z_MSC_GDPS_DewPointDepression_IsbL-0500_LatLon0.15_PT144H.grib2 2026-04-14 16:33 1.0M
20260414T12Z_MSC_GDPS_DewPointDepression_IsbL-0550_LatLon0.15_PT144H.grib2 2026-04-14 16:33 1.0M
20260414T12Z_MSC_GDPS_DewPointDepression_IsbL-0600_LatLon0.15_PT144H.grib2 2026-04-14 16:33 1.1M
20260414T12Z_MSC_GDPS_DewPointDepression_IsbL-0650_LatLon0.15_PT144H.grib2 2026-04-14 16:33 1.1M
20260414T12Z_MSC_GDPS_DewPointDepression_IsbL-0700_LatLon0.15_PT144H.grib2 2026-04-14 16:33 1.1M
20260414T12Z_MSC_GDPS_DewPointDepression_IsbL-0750_LatLon0.15_PT144H.grib2 2026-04-14 16:33 1.1M
20260414T12Z_MSC_GDPS_DewPointDepression_IsbL-0800_LatLon0.15_PT144H.grib2 2026-04-14 16:33 1.2M
20260414T12Z_MSC_GDPS_DewPointDepression_IsbL-0850_LatLon0.15_PT144H.grib2 2026-04-14 16:33 1.2M
20260414T12Z_MSC_GDPS_DewPointDepression_IsbL-0875_LatLon0.15_PT144H.grib2 2026-04-14 16:33 1.1M
20260414T12Z_MSC_GDPS_DewPointDepression_IsbL-0900_LatLon0.15_PT144H.grib2 2026-04-14 16:33 1.1M
20260414T12Z_MSC_GDPS_DewPointDepression_IsbL-0925_LatLon0.15_PT144H.grib2 2026-04-14 16:33 1.0M
20260414T12Z_MSC_GDPS_DewPointDepression_IsbL-0950_LatLon0.15_PT144H.grib2 2026-04-14 16:33 1.0M
20260414T12Z_MSC_GDPS_DewPointDepression_IsbL-0970_LatLon0.15_PT144H.grib2 2026-04-14 16:33 1.0M
20260414T12Z_MSC_GDPS_DewPointDepression_IsbL-0985_LatLon0.15_PT144H.grib2 2026-04-14 16:33 1.0M
20260414T12Z_MSC_GDPS_DewPointDepression_IsbL-1000_LatLon0.15_PT144H.grib2 2026-04-14 16:33 963K
20260414T12Z_MSC_GDPS_DewPointDepression_IsbL-1015_LatLon0.15_PT144H.grib2 2026-04-14 16:33 897K
20260414T12Z_MSC_GDPS_DewPoint_AGL-2m_LatLon0.15_PT144H.grib2 2026-04-14 16:33 613K
20260414T12Z_MSC_GDPS_DownwardLongwaveRadiationFlux-Accum_Sfc_LatLon0.15_PT144H.grib2 2026-04-14 16:33 837K
20260414T12Z_MSC_GDPS_DownwardShortwaveRadiationFlux-Accum_NTAtm_LatLon0.15_PT144H.grib2 2026-04-14 16:33 172K
20260414T12Z_MSC_GDPS_DownwardShortwaveRadiationFlux-Accum_Sfc_LatLon0.15_PT144H.grib2 2026-04-14 16:33 1.0M
20260414T12Z_MSC_GDPS_FreezingRain-Accum12h_Sfc_LatLon0.15_PT144H.grib2 2026-04-14 16:33 62K
20260414T12Z_MSC_GDPS_FreezingRain-Accum1h_Sfc_LatLon0.15_PT144H.grib2 2026-04-14 16:33 50K
20260414T12Z_MSC_GDPS_FreezingRain-Accum24h_Sfc_LatLon0.15_PT144H.grib2 2026-04-14 16:33 100K
20260414T12Z_MSC_GDPS_FreezingRain-Accum3h_Sfc_LatLon0.15_PT144H.grib2 2026-04-14 16:33 46K
20260414T12Z_MSC_GDPS_FreezingRain-Accum6h_Sfc_LatLon0.15_PT144H.grib2 2026-04-14 16:33 51K
20260414T12Z_MSC_GDPS_FreezingRain-Accum_Sfc_LatLon0.15_PT144H.grib2 2026-04-14 16:33 318K
20260414T12Z_MSC_GDPS_GeopotentialHeight_IsbL-0001_LatLon0.15_PT144H.grib2 2026-04-14 16:33 392K
20260414T12Z_MSC_GDPS_GeopotentialHeight_IsbL-0005_LatLon0.15_PT144H.grib2 2026-04-14 16:33 505K
20260414T12Z_MSC_GDPS_GeopotentialHeight_IsbL-0010_LatLon0.15_PT144H.grib2 2026-04-14 16:33 436K
20260414T12Z_MSC_GDPS_GeopotentialHeight_IsbL-0020_LatLon0.15_PT144H.grib2 2026-04-14 16:33 578K
20260414T12Z_MSC_GDPS_GeopotentialHeight_IsbL-0030_LatLon0.15_PT144H.grib2 2026-04-14 16:33 585K
20260414T12Z_MSC_GDPS_GeopotentialHeight_IsbL-0050_LatLon0.15_PT144H.grib2 2026-04-14 16:33 589K
20260414T12Z_MSC_GDPS_GeopotentialHeight_IsbL-0100_LatLon0.15_PT144H.grib2 2026-04-14 16:33 626K
20260414T12Z_MSC_GDPS_GeopotentialHeight_IsbL-0150_LatLon0.15_PT144H.grib2 2026-04-14 16:33 641K
20260414T12Z_MSC_GDPS_GeopotentialHeight_IsbL-0175_LatLon0.15_PT144H.grib2 2026-04-14 16:33 645K
20260414T12Z_MSC_GDPS_GeopotentialHeight_IsbL-0200_LatLon0.15_PT144H.grib2 2026-04-14 16:33 648K
20260414T12Z_MSC_GDPS_GeopotentialHeight_IsbL-0225_LatLon0.15_PT144H.grib2 2026-04-14 16:33 643K
20260414T12Z_MSC_GDPS_GeopotentialHeight_IsbL-0250_LatLon0.15_PT144H.grib2 2026-04-14 16:33 648K
20260414T12Z_MSC_GDPS_GeopotentialHeight_IsbL-0275_LatLon0.15_PT144H.grib2 2026-04-14 16:33 648K
20260414T12Z_MSC_GDPS_GeopotentialHeight_IsbL-0300_LatLon0.15_PT144H.grib2 2026-04-14 16:33 647K
20260414T12Z_MSC_GDPS_GeopotentialHeight_IsbL-0350_LatLon0.15_PT144H.grib2 2026-04-14 16:33 638K
20260414T12Z_MSC_GDPS_GeopotentialHeight_IsbL-0400_LatLon0.15_PT144H.grib2 2026-04-14 16:33 628K
20260414T12Z_MSC_GDPS_GeopotentialHeight_IsbL-0450_LatLon0.15_PT144H.grib2 2026-04-14 16:33 548K
20260414T12Z_MSC_GDPS_GeopotentialHeight_IsbL-0500_LatLon0.15_PT144H.grib2 2026-04-14 16:33 535K
20260414T12Z_MSC_GDPS_GeopotentialHeight_IsbL-0550_LatLon0.15_PT144H.grib2 2026-04-14 16:33 699K
20260414T12Z_MSC_GDPS_GeopotentialHeight_IsbL-0600_LatLon0.15_PT144H.grib2 2026-04-14 16:33 694K
20260414T12Z_MSC_GDPS_GeopotentialHeight_IsbL-0650_LatLon0.15_PT144H.grib2 2026-04-14 16:33 692K
20260414T12Z_MSC_GDPS_GeopotentialHeight_IsbL-0700_LatLon0.15_PT144H.grib2 2026-04-14 16:33 693K
20260414T12Z_MSC_GDPS_GeopotentialHeight_IsbL-0750_LatLon0.15_PT144H.grib2 2026-04-14 16:33 697K
20260414T12Z_MSC_GDPS_GeopotentialHeight_IsbL-0800_LatLon0.15_PT144H.grib2 2026-04-14 16:33 706K
20260414T12Z_MSC_GDPS_GeopotentialHeight_IsbL-0850_LatLon0.15_PT144H.grib2 2026-04-14 16:33 712K
20260414T12Z_MSC_GDPS_GeopotentialHeight_IsbL-0875_LatLon0.15_PT144H.grib2 2026-04-14 16:33 717K
20260414T12Z_MSC_GDPS_GeopotentialHeight_IsbL-0900_LatLon0.15_PT144H.grib2 2026-04-14 16:33 723K
20260414T12Z_MSC_GDPS_GeopotentialHeight_IsbL-0925_LatLon0.15_PT144H.grib2 2026-04-14 16:33 730K
20260414T12Z_MSC_GDPS_GeopotentialHeight_IsbL-0950_LatLon0.15_PT144H.grib2 2026-04-14 16:33 740K
20260414T12Z_MSC_GDPS_GeopotentialHeight_IsbL-0970_LatLon0.15_PT144H.grib2 2026-04-14 16:33 748K
20260414T12Z_MSC_GDPS_GeopotentialHeight_IsbL-0985_LatLon0.15_PT144H.grib2 2026-04-14 16:33 766K
20260414T12Z_MSC_GDPS_GeopotentialHeight_IsbL-1000_LatLon0.15_PT144H.grib2 2026-04-14 16:33 788K
20260414T12Z_MSC_GDPS_GeopotentialHeight_IsbL-1015_LatLon0.15_PT144H.grib2 2026-04-14 16:33 812K
20260414T12Z_MSC_GDPS_Humidex_Sfc_LatLon0.15_PT144H.grib2 2026-04-14 16:33 5.3M
20260414T12Z_MSC_GDPS_IcePellets-Accum12h_Sfc_LatLon0.15_PT144H.grib2 2026-04-14 16:33 36K
20260414T12Z_MSC_GDPS_IcePellets-Accum1h_Sfc_LatLon0.15_PT144H.grib2 2026-04-14 16:33 16K
20260414T12Z_MSC_GDPS_IcePellets-Accum24h_Sfc_LatLon0.15_PT144H.grib2 2026-04-14 16:33 63K
20260414T12Z_MSC_GDPS_IcePellets-Accum3h_Sfc_LatLon0.15_PT144H.grib2 2026-04-14 16:33 18K
20260414T12Z_MSC_GDPS_IcePellets-Accum6h_Sfc_LatLon0.15_PT144H.grib2 2026-04-14 16:33 24K
20260414T12Z_MSC_GDPS_IcePellets-Accum_Sfc_LatLon0.15_PT144H.grib2 2026-04-14 16:33 201K
20260414T12Z_MSC_GDPS_KIndex_Sfc_LatLon0.15_PT144H.grib2 2026-04-14 16:33 6.5M
20260414T12Z_MSC_GDPS_LatentHeatNetFlux_Sfc_LatLon0.15_PT144H.grib2 2026-04-14 16:33 544K
20260414T12Z_MSC_GDPS_LiftedIndex-MU-VT_IsbL-0500_LatLon0.15_PT144H.grib2 2026-04-14 16:33 5.4M
20260414T12Z_MSC_GDPS_NetLongwaveRadiationFlux-Accum_Sfc_LatLon0.15_PT144H.grib2 2026-04-14 16:33 1.1M
20260414T12Z_MSC_GDPS_NetShortwaveRadiationFlux-Accum_Sfc_LatLon0.15_PT144H.grib2 2026-04-14 16:33 1.0M
20260414T12Z_MSC_GDPS_O3MixingRatio_LatLon0.15_PT144H.grib2 2026-04-14 16:57 2.2M
20260414T12Z_MSC_GDPS_O3_EAtm_LatLon0.15_PT144H.grib2 2026-04-14 16:57 2.1M
20260414T12Z_MSC_GDPS_PlanetaryBoundaryLayerHeight_Sfc_LatLon0.15_PT144H.grib2 2026-04-14 16:33 2.5M
20260414T12Z_MSC_GDPS_Precip-Accum12h_Sfc_LatLon0.15_PT144H.grib2 2026-04-14 16:33 4.3M
20260414T12Z_MSC_GDPS_Precip-Accum1h_Sfc_LatLon0.15_PT144H.grib2 2026-04-14 16:33 3.3M
20260414T12Z_MSC_GDPS_Precip-Accum24h_Sfc_LatLon0.15_PT144H.grib2 2026-04-14 16:33 4.5M
20260414T12Z_MSC_GDPS_Precip-Accum3h_Sfc_LatLon0.15_PT144H.grib2 2026-04-14 16:33 3.5M
20260414T12Z_MSC_GDPS_Precip-Accum6h_Sfc_LatLon0.15_PT144H.grib2 2026-04-14 16:33 3.8M
20260414T12Z_MSC_GDPS_Precip-Accum_Sfc_LatLon0.15_PT144H.grib2 2026-04-14 16:33 5.2M
20260414T12Z_MSC_GDPS_PrecipRate_Sfc_LatLon0.15_PT144H.grib2 2026-04-14 16:33 3.2M
20260414T12Z_MSC_GDPS_PrecipType-Instant_Sfc_LatLon0.15_PT144H.grib2 2026-04-14 16:33 1.6M
20260414T12Z_MSC_GDPS_Pressure_MSL_LatLon0.15_PT144H.grib2 2026-04-14 16:33 727K
20260414T12Z_MSC_GDPS_Pressure_PVU-1.5_LatLon0.15_PT144H.grib2 2026-04-14 16:33 5.8M
20260414T12Z_MSC_GDPS_Pressure_PVU-1_LatLon0.15_PT144H.grib2 2026-04-14 16:33 6.0M
20260414T12Z_MSC_GDPS_Pressure_PVU-2_LatLon0.15_PT144H.grib2 2026-04-14 16:33 5.6M
20260414T12Z_MSC_GDPS_Pressure_Sfc_LatLon0.15_PT144H.grib2 2026-04-14 16:33 1.1M
20260414T12Z_MSC_GDPS_RadiativeTemp_Sfc_LatLon0.15_PT144H.grib2 2026-04-14 16:33 503K
20260414T12Z_MSC_GDPS_Rain-Accum12h_Sfc_LatLon0.15_PT144H.grib2 2026-04-14 16:33 2.8M
20260414T12Z_MSC_GDPS_Rain-Accum1h_Sfc_LatLon0.15_PT144H.grib2 2026-04-14 16:33 1.6M
20260414T12Z_MSC_GDPS_Rain-Accum24h_Sfc_LatLon0.15_PT144H.grib2 2026-04-14 16:33 3.1M
20260414T12Z_MSC_GDPS_Rain-Accum3h_Sfc_LatLon0.15_PT144H.grib2 2026-04-14 16:33 1.7M
20260414T12Z_MSC_GDPS_Rain-Accum6h_Sfc_LatLon0.15_PT144H.grib2 2026-04-14 16:33 2.4M
20260414T12Z_MSC_GDPS_Rain-Accum_Sfc_LatLon0.15_PT144H.grib2 2026-04-14 16:33 4.0M
20260414T12Z_MSC_GDPS_RelativeHumidity_AGL-2m_LatLon0.15_PT144H.grib2 2026-04-14 16:33 1.0M
20260414T12Z_MSC_GDPS_RelativeHumidity_IsbL-0010_LatLon0.15_PT144H.grib2 2026-04-14 16:33 227K
20260414T12Z_MSC_GDPS_RelativeHumidity_IsbL-0020_LatLon0.15_PT144H.grib2 2026-04-14 16:33 361K
20260414T12Z_MSC_GDPS_RelativeHumidity_IsbL-0030_LatLon0.15_PT144H.grib2 2026-04-14 16:33 417K
20260414T12Z_MSC_GDPS_RelativeHumidity_IsbL-0050_LatLon0.15_PT144H.grib2 2026-04-14 16:33 407K
20260414T12Z_MSC_GDPS_RelativeHumidity_IsbL-0100_LatLon0.15_PT144H.grib2 2026-04-14 16:33 335K
20260414T12Z_MSC_GDPS_RelativeHumidity_IsbL-0150_LatLon0.15_PT144H.grib2 2026-04-14 16:33 654K
20260414T12Z_MSC_GDPS_RelativeHumidity_IsbL-0175_LatLon0.15_PT144H.grib2 2026-04-14 16:33 784K
20260414T12Z_MSC_GDPS_RelativeHumidity_IsbL-0200_LatLon0.15_PT144H.grib2 2026-04-14 16:33 691K
20260414T12Z_MSC_GDPS_RelativeHumidity_IsbL-0225_LatLon0.15_PT144H.grib2 2026-04-14 16:33 782K
20260414T12Z_MSC_GDPS_RelativeHumidity_IsbL-0250_LatLon0.15_PT144H.grib2 2026-04-14 16:33 866K
20260414T12Z_MSC_GDPS_RelativeHumidity_IsbL-0275_LatLon0.15_PT144H.grib2 2026-04-14 16:33 888K
20260414T12Z_MSC_GDPS_RelativeHumidity_IsbL-0300_LatLon0.15_PT144H.grib2 2026-04-14 16:33 937K
20260414T12Z_MSC_GDPS_RelativeHumidity_IsbL-0350_LatLon0.15_PT144H.grib2 2026-04-14 16:33 960K
20260414T12Z_MSC_GDPS_RelativeHumidity_IsbL-0400_LatLon0.15_PT144H.grib2 2026-04-14 16:33 1.0M
20260414T12Z_MSC_GDPS_RelativeHumidity_IsbL-0450_LatLon0.15_PT144H.grib2 2026-04-14 16:33 1.0M
20260414T12Z_MSC_GDPS_RelativeHumidity_IsbL-0500_LatLon0.15_PT144H.grib2 2026-04-14 16:33 1.0M
20260414T12Z_MSC_GDPS_RelativeHumidity_IsbL-0550_LatLon0.15_PT144H.grib2 2026-04-14 16:33 1.0M
20260414T12Z_MSC_GDPS_RelativeHumidity_IsbL-0600_LatLon0.15_PT144H.grib2 2026-04-14 16:33 1.1M
20260414T12Z_MSC_GDPS_RelativeHumidity_IsbL-0650_LatLon0.15_PT144H.grib2 2026-04-14 16:33 1.1M
20260414T12Z_MSC_GDPS_RelativeHumidity_IsbL-0700_LatLon0.15_PT144H.grib2 2026-04-14 16:33 1.2M
20260414T12Z_MSC_GDPS_RelativeHumidity_IsbL-0750_LatLon0.15_PT144H.grib2 2026-04-14 16:33 1.2M
20260414T12Z_MSC_GDPS_RelativeHumidity_IsbL-0800_LatLon0.15_PT144H.grib2 2026-04-14 16:33 1.2M
20260414T12Z_MSC_GDPS_RelativeHumidity_IsbL-0850_LatLon0.15_PT144H.grib2 2026-04-14 16:33 1.3M
20260414T12Z_MSC_GDPS_RelativeHumidity_IsbL-0875_LatLon0.15_PT144H.grib2 2026-04-14 16:33 1.3M
20260414T12Z_MSC_GDPS_RelativeHumidity_IsbL-0900_LatLon0.15_PT144H.grib2 2026-04-14 16:33 1.2M
20260414T12Z_MSC_GDPS_RelativeHumidity_IsbL-0925_LatLon0.15_PT144H.grib2 2026-04-14 16:33 1.2M
20260414T12Z_MSC_GDPS_RelativeHumidity_IsbL-0950_LatLon0.15_PT144H.grib2 2026-04-14 16:33 1.2M
20260414T12Z_MSC_GDPS_RelativeHumidity_IsbL-0970_LatLon0.15_PT144H.grib2 2026-04-14 16:33 1.2M
20260414T12Z_MSC_GDPS_RelativeHumidity_IsbL-0985_LatLon0.15_PT144H.grib2 2026-04-14 16:33 1.1M
20260414T12Z_MSC_GDPS_RelativeHumidity_IsbL-1000_LatLon0.15_PT144H.grib2 2026-04-14 16:33 1.1M
20260414T12Z_MSC_GDPS_RelativeHumidity_IsbL-1015_LatLon0.15_PT144H.grib2 2026-04-14 16:33 1.0M
20260414T12Z_MSC_GDPS_RelativeVorticity_IsbL-0200_LatLon0.15_PT144H.grib2 2026-04-14 16:33 1.5M
20260414T12Z_MSC_GDPS_RelativeVorticity_IsbL-0250_LatLon0.15_PT144H.grib2 2026-04-14 16:33 1.3M
20260414T12Z_MSC_GDPS_RelativeVorticity_IsbL-0500_LatLon0.15_PT144H.grib2 2026-04-14 16:33 1.4M
20260414T12Z_MSC_GDPS_RelativeVorticity_IsbL-0700_LatLon0.15_PT144H.grib2 2026-04-14 16:33 1.6M
20260414T12Z_MSC_GDPS_RelativeVorticity_IsbL-0850_LatLon0.15_PT144H.grib2 2026-04-14 16:33 1.6M
20260414T12Z_MSC_GDPS_Runoff-Accum_Sfc_LatLon0.15_PT144H.grib2 2026-04-14 16:33 130K
20260414T12Z_MSC_GDPS_SensibleHeatNetFlux_Sfc_LatLon0.15_PT144H.grib2 2026-04-14 16:33 637K
20260414T12Z_MSC_GDPS_ShowalterIndex_IsbL-0500_LatLon0.15_PT144H.grib2 2026-04-14 16:33 6.2M
20260414T12Z_MSC_GDPS_Snow-Accum12h_Sfc_LatLon0.15_PT144H.grib2 2026-04-14 16:33 1.5M
20260414T12Z_MSC_GDPS_Snow-Accum1h_Sfc_LatLon0.15_PT144H.grib2 2026-04-14 16:33 1.1M
20260414T12Z_MSC_GDPS_Snow-Accum24h_Sfc_LatLon0.15_PT144H.grib2 2026-04-14 16:33 1.6M
20260414T12Z_MSC_GDPS_Snow-Accum3h_Sfc_LatLon0.15_PT144H.grib2 2026-04-14 16:33 1.1M
20260414T12Z_MSC_GDPS_Snow-Accum6h_Sfc_LatLon0.15_PT144H.grib2 2026-04-14 16:33 1.5M
20260414T12Z_MSC_GDPS_Snow-Accum_Sfc_LatLon0.15_PT144H.grib2 2026-04-14 16:33 2.0M
20260414T12Z_MSC_GDPS_SnowDensity_Sfc_LatLon0.15_PT144H.grib2 2026-04-14 16:33 273K
20260414T12Z_MSC_GDPS_SnowDepth_Sfc_LatLon0.15_PT144H.grib2 2026-04-14 16:33 1.8M
20260414T12Z_MSC_GDPS_SoilTemp_DBS-0to10cm_LatLon0.15_PT144H.grib2 2026-04-14 16:33 508K
20260414T12Z_MSC_GDPS_SoilTemp_Sfc_LatLon0.15_PT144H.grib2 2026-04-14 16:33 576K
20260414T12Z_MSC_GDPS_SoilVolumetricIceContent_Sfc_LatLon0.15_PT144H.grib2 2026-04-14 16:33 223K
20260414T12Z_MSC_GDPS_SoilVolumetricWaterContent_DBS-0to10cm_LatLon0.15_PT144H.grib2 2026-04-14 16:33 554K
20260414T12Z_MSC_GDPS_SoilVolumetricWaterContent_DBS-0to1cm_LatLon0.15_PT144H.grib2 2026-04-14 16:33 649K
20260414T12Z_MSC_GDPS_SpecificHumidity_AGL-120m_LatLon0.15_PT144H.grib2 2026-04-14 16:33 1.1M
20260414T12Z_MSC_GDPS_SpecificHumidity_AGL-2m_LatLon0.15_PT144H.grib2 2026-04-14 16:33 1.2M
20260414T12Z_MSC_GDPS_SpecificHumidity_AGL-40m_LatLon0.15_PT144H.grib2 2026-04-14 16:33 1.1M
20260414T12Z_MSC_GDPS_SpecificHumidity_AGL-80m_LatLon0.15_PT144H.grib2 2026-04-14 16:33 1.1M
20260414T12Z_MSC_GDPS_SpecificHumidity_IsbL-0001_LatLon0.15_PT144H.grib2 2026-04-14 16:33 1.1M
20260414T12Z_MSC_GDPS_SpecificHumidity_IsbL-0005_LatLon0.15_PT144H.grib2 2026-04-14 16:33 1.0M
20260414T12Z_MSC_GDPS_SpecificHumidity_IsbL-0010_LatLon0.15_PT144H.grib2 2026-04-14 16:33 1.2M
20260414T12Z_MSC_GDPS_SpecificHumidity_IsbL-0020_LatLon0.15_PT144H.grib2 2026-04-14 16:33 1.2M
20260414T12Z_MSC_GDPS_SpecificHumidity_IsbL-0030_LatLon0.15_PT144H.grib2 2026-04-14 16:33 1.5M
20260414T12Z_MSC_GDPS_SpecificHumidity_IsbL-0050_LatLon0.15_PT144H.grib2 2026-04-14 16:33 1.2M
20260414T12Z_MSC_GDPS_SpecificHumidity_IsbL-0100_LatLon0.15_PT144H.grib2 2026-04-14 16:33 1.3M
20260414T12Z_MSC_GDPS_SpecificHumidity_IsbL-0150_LatLon0.15_PT144H.grib2 2026-04-14 16:33 1.3M
20260414T12Z_MSC_GDPS_SpecificHumidity_IsbL-0175_LatLon0.15_PT144H.grib2 2026-04-14 16:33 1.3M
20260414T12Z_MSC_GDPS_SpecificHumidity_IsbL-0200_LatLon0.15_PT144H.grib2 2026-04-14 16:33 1.3M
20260414T12Z_MSC_GDPS_SpecificHumidity_IsbL-0225_LatLon0.15_PT144H.grib2 2026-04-14 16:33 1.3M
20260414T12Z_MSC_GDPS_SpecificHumidity_IsbL-0250_LatLon0.15_PT144H.grib2 2026-04-14 16:33 1.5M
20260414T12Z_MSC_GDPS_SpecificHumidity_IsbL-0275_LatLon0.15_PT144H.grib2 2026-04-14 16:33 1.3M
20260414T12Z_MSC_GDPS_SpecificHumidity_IsbL-0300_LatLon0.15_PT144H.grib2 2026-04-14 16:33 1.5M
20260414T12Z_MSC_GDPS_SpecificHumidity_IsbL-0350_LatLon0.15_PT144H.grib2 2026-04-14 16:33 1.5M
20260414T12Z_MSC_GDPS_SpecificHumidity_IsbL-0400_LatLon0.15_PT144H.grib2 2026-04-14 16:33 1.5M
20260414T12Z_MSC_GDPS_SpecificHumidity_IsbL-0450_LatLon0.15_PT144H.grib2 2026-04-14 16:33 1.6M
20260414T12Z_MSC_GDPS_SpecificHumidity_IsbL-0500_LatLon0.15_PT144H.grib2 2026-04-14 16:33 1.4M
20260414T12Z_MSC_GDPS_SpecificHumidity_IsbL-0550_LatLon0.15_PT144H.grib2 2026-04-14 16:33 1.6M
20260414T12Z_MSC_GDPS_SpecificHumidity_IsbL-0600_LatLon0.15_PT144H.grib2 2026-04-14 16:33 1.7M
20260414T12Z_MSC_GDPS_SpecificHumidity_IsbL-0650_LatLon0.15_PT144H.grib2 2026-04-14 16:33 1.5M
20260414T12Z_MSC_GDPS_SpecificHumidity_IsbL-0700_LatLon0.15_PT144H.grib2 2026-04-14 16:33 1.6M
20260414T12Z_MSC_GDPS_SpecificHumidity_IsbL-0750_LatLon0.15_PT144H.grib2 2026-04-14 16:33 1.7M
20260414T12Z_MSC_GDPS_SpecificHumidity_IsbL-0800_LatLon0.15_PT144H.grib2 2026-04-14 16:33 1.9M
20260414T12Z_MSC_GDPS_SpecificHumidity_IsbL-0850_LatLon0.15_PT144H.grib2 2026-04-14 16:33 1.9M
20260414T12Z_MSC_GDPS_SpecificHumidity_IsbL-0875_LatLon0.15_PT144H.grib2 2026-04-14 16:33 1.6M
20260414T12Z_MSC_GDPS_SpecificHumidity_IsbL-0900_LatLon0.15_PT144H.grib2 2026-04-14 16:33 1.6M
20260414T12Z_MSC_GDPS_SpecificHumidity_IsbL-0925_LatLon0.15_PT144H.grib2 2026-04-14 16:33 1.6M
20260414T12Z_MSC_GDPS_SpecificHumidity_IsbL-0950_LatLon0.15_PT144H.grib2 2026-04-14 16:33 1.5M
20260414T12Z_MSC_GDPS_SpecificHumidity_IsbL-0970_LatLon0.15_PT144H.grib2 2026-04-14 16:33 1.5M
20260414T12Z_MSC_GDPS_SpecificHumidity_IsbL-0985_LatLon0.15_PT144H.grib2 2026-04-14 16:33 1.5M
20260414T12Z_MSC_GDPS_SpecificHumidity_IsbL-1000_LatLon0.15_PT144H.grib2 2026-04-14 16:33 1.5M
20260414T12Z_MSC_GDPS_SpecificHumidity_IsbL-1015_LatLon0.15_PT144H.grib2 2026-04-14 16:33 1.4M
20260414T12Z_MSC_GDPS_SpecificHumidity_Sfc_LatLon0.15_PT144H.grib2 2026-04-14 16:33 670K
20260414T12Z_MSC_GDPS_Thickness_IsbL-0850to0700_LatLon0.15_PT144H.grib2 2026-04-14 16:33 469K
20260414T12Z_MSC_GDPS_Thickness_IsbL-1000to0500_LatLon0.15_PT144H.grib2 2026-04-14 16:33 375K
20260414T12Z_MSC_GDPS_Thickness_IsbL-1000to0850_LatLon0.15_PT144H.grib2 2026-04-14 16:33 493K
20260414T12Z_MSC_GDPS_TotalCloudCover_Sfc_LatLon0.15_PT144H.grib2 2026-04-14 16:33 823K
20260414T12Z_MSC_GDPS_TotalTotalsIndex_Sfc_LatLon0.15_PT144H.grib2 2026-04-14 16:33 6.2M
20260414T12Z_MSC_GDPS_UVIndex-ClearSky_Sfc_LatLon0.15_PT144H.grib2 2026-04-14 16:57 1.0M
20260414T12Z_MSC_GDPS_UVIndex_Sfc_LatLon0.15_PT144H.grib2 2026-04-14 16:57 1.4M
20260414T12Z_MSC_GDPS_UpwardLongwaveRadiationFlux_NTAtm_LatLon0.15_PT144H.grib2 2026-04-14 16:33 842K
20260414T12Z_MSC_GDPS_VerticalVelocity_IsbL-0200_LatLon0.15_PT144H.grib2 2026-04-14 16:33 1.1M
20260414T12Z_MSC_GDPS_VerticalVelocity_IsbL-0250_LatLon0.15_PT144H.grib2 2026-04-14 16:33 1.0M
20260414T12Z_MSC_GDPS_VerticalVelocity_IsbL-0500_LatLon0.15_PT144H.grib2 2026-04-14 16:33 1.0M
20260414T12Z_MSC_GDPS_VerticalVelocity_IsbL-0600_LatLon0.15_PT144H.grib2 2026-04-14 16:33 1.1M
20260414T12Z_MSC_GDPS_VerticalVelocity_IsbL-0700_LatLon0.15_PT144H.grib2 2026-04-14 16:33 1.4M
20260414T12Z_MSC_GDPS_VerticalVelocity_IsbL-0850_LatLon0.15_PT144H.grib2 2026-04-14 16:33 1.6M
20260414T12Z_MSC_GDPS_WindChill_Sfc_LatLon0.15_PT144H.grib2 2026-04-14 16:33 5.3M
20260414T12Z_MSC_GDPS_WindDir_AGL-10m_LatLon0.15_PT144H.grib2 2026-04-14 16:33 1.3M
20260414T12Z_MSC_GDPS_WindDir_AGL-120m_LatLon0.15_PT144H.grib2 2026-04-14 16:33 1.4M
20260414T12Z_MSC_GDPS_WindDir_AGL-40m_LatLon0.15_PT144H.grib2 2026-04-14 16:33 1.4M
20260414T12Z_MSC_GDPS_WindDir_AGL-80m_LatLon0.15_PT144H.grib2 2026-04-14 16:33 1.4M
20260414T12Z_MSC_GDPS_WindDir_IsbL-0001_LatLon0.15_PT144H.grib2 2026-04-14 16:33 636K
20260414T12Z_MSC_GDPS_WindDir_IsbL-0005_LatLon0.15_PT144H.grib2 2026-04-14 16:33 799K
20260414T12Z_MSC_GDPS_WindDir_IsbL-0010_LatLon0.15_PT144H.grib2 2026-04-14 16:33 856K
20260414T12Z_MSC_GDPS_WindDir_IsbL-0020_LatLon0.15_PT144H.grib2 2026-04-14 16:33 922K
20260414T12Z_MSC_GDPS_WindDir_IsbL-0030_LatLon0.15_PT144H.grib2 2026-04-14 16:33 903K
20260414T12Z_MSC_GDPS_WindDir_IsbL-0050_LatLon0.15_PT144H.grib2 2026-04-14 16:33 959K
20260414T12Z_MSC_GDPS_WindDir_IsbL-0100_LatLon0.15_PT144H.grib2 2026-04-14 16:33 1.0M
20260414T12Z_MSC_GDPS_WindDir_IsbL-0150_LatLon0.15_PT144H.grib2 2026-04-14 16:33 1.0M
20260414T12Z_MSC_GDPS_WindDir_IsbL-0175_LatLon0.15_PT144H.grib2 2026-04-14 16:33 1.0M
20260414T12Z_MSC_GDPS_WindDir_IsbL-0200_LatLon0.15_PT144H.grib2 2026-04-14 16:33 1.1M
20260414T12Z_MSC_GDPS_WindDir_IsbL-0225_LatLon0.15_PT144H.grib2 2026-04-14 16:33 1.1M
20260414T12Z_MSC_GDPS_WindDir_IsbL-0250_LatLon0.15_PT144H.grib2 2026-04-14 16:33 1.1M
20260414T12Z_MSC_GDPS_WindDir_IsbL-0275_LatLon0.15_PT144H.grib2 2026-04-14 16:33 1.2M
20260414T12Z_MSC_GDPS_WindDir_IsbL-0300_LatLon0.15_PT144H.grib2 2026-04-14 16:33 1.2M
20260414T12Z_MSC_GDPS_WindDir_IsbL-0350_LatLon0.15_PT144H.grib2 2026-04-14 16:33 1.2M
20260414T12Z_MSC_GDPS_WindDir_IsbL-0400_LatLon0.15_PT144H.grib2 2026-04-14 16:33 1.2M
20260414T12Z_MSC_GDPS_WindDir_IsbL-0450_LatLon0.15_PT144H.grib2 2026-04-14 16:33 1.3M
20260414T12Z_MSC_GDPS_WindDir_IsbL-0500_LatLon0.15_PT144H.grib2 2026-04-14 16:33 1.3M
20260414T12Z_MSC_GDPS_WindDir_IsbL-0550_LatLon0.15_PT144H.grib2 2026-04-14 16:33 1.4M
20260414T12Z_MSC_GDPS_WindDir_IsbL-0600_LatLon0.15_PT144H.grib2 2026-04-14 16:33 1.5M
20260414T12Z_MSC_GDPS_WindDir_IsbL-0650_LatLon0.15_PT144H.grib2 2026-04-14 16:33 1.5M
20260414T12Z_MSC_GDPS_WindDir_IsbL-0700_LatLon0.15_PT144H.grib2 2026-04-14 16:33 1.6M
20260414T12Z_MSC_GDPS_WindDir_IsbL-0750_LatLon0.15_PT144H.grib2 2026-04-14 16:33 1.7M
20260414T12Z_MSC_GDPS_WindDir_IsbL-0800_LatLon0.15_PT144H.grib2 2026-04-14 16:33 1.8M
20260414T12Z_MSC_GDPS_WindDir_IsbL-0850_LatLon0.15_PT144H.grib2 2026-04-14 16:33 2.0M
20260414T12Z_MSC_GDPS_WindDir_IsbL-0875_LatLon0.15_PT144H.grib2 2026-04-14 16:33 2.0M
20260414T12Z_MSC_GDPS_WindDir_IsbL-0900_LatLon0.15_PT144H.grib2 2026-04-14 16:33 2.0M
20260414T12Z_MSC_GDPS_WindDir_IsbL-0925_LatLon0.15_PT144H.grib2 2026-04-14 16:33 2.0M
20260414T12Z_MSC_GDPS_WindDir_IsbL-0950_LatLon0.15_PT144H.grib2 2026-04-14 16:33 2.0M
20260414T12Z_MSC_GDPS_WindDir_IsbL-0970_LatLon0.15_PT144H.grib2 2026-04-14 16:33 2.0M
20260414T12Z_MSC_GDPS_WindDir_IsbL-0985_LatLon0.15_PT144H.grib2 2026-04-14 16:33 2.0M
20260414T12Z_MSC_GDPS_WindDir_IsbL-1000_LatLon0.15_PT144H.grib2 2026-04-14 16:33 2.1M
20260414T12Z_MSC_GDPS_WindDir_IsbL-1015_LatLon0.15_PT144H.grib2 2026-04-14 16:33 2.0M
20260414T12Z_MSC_GDPS_WindGust-Max_AGL-10m_LatLon0.15_PT144H.grib2 2026-04-14 16:33 2.3M
20260414T12Z_MSC_GDPS_WindGust-Min_AGL-10m_LatLon0.15_PT144H.grib2 2026-04-14 16:33 2.2M
20260414T12Z_MSC_GDPS_WindGust_AGL-10m_LatLon0.15_PT144H.grib2 2026-04-14 16:33 2.2M
20260414T12Z_MSC_GDPS_WindSpeed_AGL-10m_LatLon0.15_PT144H.grib2 2026-04-14 16:33 1.1M
20260414T12Z_MSC_GDPS_WindSpeed_AGL-120m_LatLon0.15_PT144H.grib2 2026-04-14 16:33 1.2M
20260414T12Z_MSC_GDPS_WindSpeed_AGL-40m_LatLon0.15_PT144H.grib2 2026-04-14 16:33 1.2M
20260414T12Z_MSC_GDPS_WindSpeed_AGL-80m_LatLon0.15_PT144H.grib2 2026-04-14 16:33 1.2M
20260414T12Z_MSC_GDPS_WindSpeed_IsbL-0001_LatLon0.15_PT144H.grib2 2026-04-14 16:33 633K
20260414T12Z_MSC_GDPS_WindSpeed_IsbL-0005_LatLon0.15_PT144H.grib2 2026-04-14 16:33 693K
20260414T12Z_MSC_GDPS_WindSpeed_IsbL-0010_LatLon0.15_PT144H.grib2 2026-04-14 16:33 627K
20260414T12Z_MSC_GDPS_WindSpeed_IsbL-0020_LatLon0.15_PT144H.grib2 2026-04-14 16:33 665K
20260414T12Z_MSC_GDPS_WindSpeed_IsbL-0030_LatLon0.15_PT144H.grib2 2026-04-14 16:33 854K
20260414T12Z_MSC_GDPS_WindSpeed_IsbL-0050_LatLon0.15_PT144H.grib2 2026-04-14 16:33 1.0M
20260414T12Z_MSC_GDPS_WindSpeed_IsbL-0100_LatLon0.15_PT144H.grib2 2026-04-14 16:33 1.1M
20260414T12Z_MSC_GDPS_WindSpeed_IsbL-0150_LatLon0.15_PT144H.grib2 2026-04-14 16:33 1.0M
20260414T12Z_MSC_GDPS_WindSpeed_IsbL-0175_LatLon0.15_PT144H.grib2 2026-04-14 16:33 1.0M
20260414T12Z_MSC_GDPS_WindSpeed_IsbL-0200_LatLon0.15_PT144H.grib2 2026-04-14 16:33 1.1M
20260414T12Z_MSC_GDPS_WindSpeed_IsbL-0225_LatLon0.15_PT144H.grib2 2026-04-14 16:33 1.1M
20260414T12Z_MSC_GDPS_WindSpeed_IsbL-0250_LatLon0.15_PT144H.grib2 2026-04-14 16:33 1.1M
20260414T12Z_MSC_GDPS_WindSpeed_IsbL-0275_LatLon0.15_PT144H.grib2 2026-04-14 16:33 1.1M
20260414T12Z_MSC_GDPS_WindSpeed_IsbL-0300_LatLon0.15_PT144H.grib2 2026-04-14 16:33 1.1M
20260414T12Z_MSC_GDPS_WindSpeed_IsbL-0350_LatLon0.15_PT144H.grib2 2026-04-14 16:33 1.1M
20260414T12Z_MSC_GDPS_WindSpeed_IsbL-0400_LatLon0.15_PT144H.grib2 2026-04-14 16:33 1.1M
20260414T12Z_MSC_GDPS_WindSpeed_IsbL-0450_LatLon0.15_PT144H.grib2 2026-04-14 16:33 1.1M
20260414T12Z_MSC_GDPS_WindSpeed_IsbL-0500_LatLon0.15_PT144H.grib2 2026-04-14 16:33 1.1M
20260414T12Z_MSC_GDPS_WindSpeed_IsbL-0550_LatLon0.15_PT144H.grib2 2026-04-14 16:33 1.1M
20260414T12Z_MSC_GDPS_WindSpeed_IsbL-0600_LatLon0.15_PT144H.grib2 2026-04-14 16:33 1.1M
20260414T12Z_MSC_GDPS_WindSpeed_IsbL-0650_LatLon0.15_PT144H.grib2 2026-04-14 16:33 1.4M
20260414T12Z_MSC_GDPS_WindSpeed_IsbL-0700_LatLon0.15_PT144H.grib2 2026-04-14 16:33 1.5M
20260414T12Z_MSC_GDPS_WindSpeed_IsbL-0750_LatLon0.15_PT144H.grib2 2026-04-14 16:33 1.5M
20260414T12Z_MSC_GDPS_WindSpeed_IsbL-0800_LatLon0.15_PT144H.grib2 2026-04-14 16:33 1.6M
20260414T12Z_MSC_GDPS_WindSpeed_IsbL-0850_LatLon0.15_PT144H.grib2 2026-04-14 16:33 1.8M
20260414T12Z_MSC_GDPS_WindSpeed_IsbL-0875_LatLon0.15_PT144H.grib2 2026-04-14 16:33 1.9M
20260414T12Z_MSC_GDPS_WindSpeed_IsbL-0900_LatLon0.15_PT144H.grib2 2026-04-14 16:33 1.9M
20260414T12Z_MSC_GDPS_WindSpeed_IsbL-0925_LatLon0.15_PT144H.grib2 2026-04-14 16:33 1.9M
20260414T12Z_MSC_GDPS_WindSpeed_IsbL-0950_LatLon0.15_PT144H.grib2 2026-04-14 16:33 1.8M
20260414T12Z_MSC_GDPS_WindSpeed_IsbL-0970_LatLon0.15_PT144H.grib2 2026-04-14 16:33 1.8M
20260414T12Z_MSC_GDPS_WindSpeed_IsbL-0985_LatLon0.15_PT144H.grib2 2026-04-14 16:33 1.8M
20260414T12Z_MSC_GDPS_WindSpeed_IsbL-1000_LatLon0.15_PT144H.grib2 2026-04-14 16:33 1.8M
20260414T12Z_MSC_GDPS_WindSpeed_IsbL-1015_LatLon0.15_PT144H.grib2 2026-04-14 16:33 1.8M
20260414T12Z_MSC_GDPS_WindU_AGL-10m_LatLon0.15_PT144H.grib2 2026-04-14 16:33 1.6M
20260414T12Z_MSC_GDPS_WindU_AGL-120m_LatLon0.15_PT144H.grib2 2026-04-14 16:33 1.2M
20260414T12Z_MSC_GDPS_WindU_AGL-40m_LatLon0.15_PT144H.grib2 2026-04-14 16:33 1.2M
20260414T12Z_MSC_GDPS_WindU_AGL-80m_LatLon0.15_PT144H.grib2 2026-04-14 16:33 1.2M
20260414T12Z_MSC_GDPS_WindU_IsbL-0001_LatLon0.15_PT144H.grib2 2026-04-14 16:33 639K
20260414T12Z_MSC_GDPS_WindU_IsbL-0005_LatLon0.15_PT144H.grib2 2026-04-14 16:33 691K
20260414T12Z_MSC_GDPS_WindU_IsbL-0010_LatLon0.15_PT144H.grib2 2026-04-14 16:33 702K
20260414T12Z_MSC_GDPS_WindU_IsbL-0020_LatLon0.15_PT144H.grib2 2026-04-14 16:33 735K
20260414T12Z_MSC_GDPS_WindU_IsbL-0030_LatLon0.15_PT144H.grib2 2026-04-14 16:33 733K
20260414T12Z_MSC_GDPS_WindU_IsbL-0050_LatLon0.15_PT144H.grib2 2026-04-14 16:33 703K
20260414T12Z_MSC_GDPS_WindU_IsbL-0100_LatLon0.15_PT144H.grib2 2026-04-14 16:33 862K
20260414T12Z_MSC_GDPS_WindU_IsbL-0150_LatLon0.15_PT144H.grib2 2026-04-14 16:33 1.0M
20260414T12Z_MSC_GDPS_WindU_IsbL-0175_LatLon0.15_PT144H.grib2 2026-04-14 16:33 1.0M
20260414T12Z_MSC_GDPS_WindU_IsbL-0200_LatLon0.15_PT144H.grib2 2026-04-14 16:33 1.1M
20260414T12Z_MSC_GDPS_WindU_IsbL-0225_LatLon0.15_PT144H.grib2 2026-04-14 16:33 851K
20260414T12Z_MSC_GDPS_WindU_IsbL-0250_LatLon0.15_PT144H.grib2 2026-04-14 16:33 850K
20260414T12Z_MSC_GDPS_WindU_IsbL-0275_LatLon0.15_PT144H.grib2 2026-04-14 16:33 878K
20260414T12Z_MSC_GDPS_WindU_IsbL-0300_LatLon0.15_PT144H.grib2 2026-04-14 16:33 926K
20260414T12Z_MSC_GDPS_WindU_IsbL-0350_LatLon0.15_PT144H.grib2 2026-04-14 16:33 939K
20260414T12Z_MSC_GDPS_WindU_IsbL-0400_LatLon0.15_PT144H.grib2 2026-04-14 16:33 881K
20260414T12Z_MSC_GDPS_WindU_IsbL-0450_LatLon0.15_PT144H.grib2 2026-04-14 16:33 883K
20260414T12Z_MSC_GDPS_WindU_IsbL-0500_LatLon0.15_PT144H.grib2 2026-04-14 16:33 1.1M
20260414T12Z_MSC_GDPS_WindU_IsbL-0550_LatLon0.15_PT144H.grib2 2026-04-14 16:33 1.1M
20260414T12Z_MSC_GDPS_WindU_IsbL-0600_LatLon0.15_PT144H.grib2 2026-04-14 16:33 1.1M
20260414T12Z_MSC_GDPS_WindU_IsbL-0650_LatLon0.15_PT144H.grib2 2026-04-14 16:33 1.2M
20260414T12Z_MSC_GDPS_WindU_IsbL-0700_LatLon0.15_PT144H.grib2 2026-04-14 16:33 1.2M
20260414T12Z_MSC_GDPS_WindU_IsbL-0750_LatLon0.15_PT144H.grib2 2026-04-14 16:33 1.3M
20260414T12Z_MSC_GDPS_WindU_IsbL-0800_LatLon0.15_PT144H.grib2 2026-04-14 16:33 1.3M
20260414T12Z_MSC_GDPS_WindU_IsbL-0850_LatLon0.15_PT144H.grib2 2026-04-14 16:33 1.4M
20260414T12Z_MSC_GDPS_WindU_IsbL-0875_LatLon0.15_PT144H.grib2 2026-04-14 16:33 1.4M
20260414T12Z_MSC_GDPS_WindU_IsbL-0900_LatLon0.15_PT144H.grib2 2026-04-14 16:33 1.4M
20260414T12Z_MSC_GDPS_WindU_IsbL-0925_LatLon0.15_PT144H.grib2 2026-04-14 16:33 1.4M
20260414T12Z_MSC_GDPS_WindU_IsbL-0950_LatLon0.15_PT144H.grib2 2026-04-14 16:33 1.4M
20260414T12Z_MSC_GDPS_WindU_IsbL-0970_LatLon0.15_PT144H.grib2 2026-04-14 16:33 1.4M
20260414T12Z_MSC_GDPS_WindU_IsbL-0985_LatLon0.15_PT144H.grib2 2026-04-14 16:33 1.7M
20260414T12Z_MSC_GDPS_WindU_IsbL-1000_LatLon0.15_PT144H.grib2 2026-04-14 16:33 1.7M
20260414T12Z_MSC_GDPS_WindU_IsbL-1015_LatLon0.15_PT144H.grib2 2026-04-14 16:33 1.6M
20260414T12Z_MSC_GDPS_WindV_AGL-10m_LatLon0.15_PT144H.grib2 2026-04-14 16:33 1.6M
20260414T12Z_MSC_GDPS_WindV_AGL-120m_LatLon0.15_PT144H.grib2 2026-04-14 16:33 969K
20260414T12Z_MSC_GDPS_WindV_AGL-40m_LatLon0.15_PT144H.grib2 2026-04-14 16:33 1.2M
20260414T12Z_MSC_GDPS_WindV_AGL-80m_LatLon0.15_PT144H.grib2 2026-04-14 16:33 1.2M
20260414T12Z_MSC_GDPS_WindV_IsbL-0001_LatLon0.15_PT144H.grib2 2026-04-14 16:33 695K
20260414T12Z_MSC_GDPS_WindV_IsbL-0005_LatLon0.15_PT144H.grib2 2026-04-14 16:33 779K
20260414T12Z_MSC_GDPS_WindV_IsbL-0010_LatLon0.15_PT144H.grib2 2026-04-14 16:33 805K
20260414T12Z_MSC_GDPS_WindV_IsbL-0020_LatLon0.15_PT144H.grib2 2026-04-14 16:33 854K
20260414T12Z_MSC_GDPS_WindV_IsbL-0030_LatLon0.15_PT144H.grib2 2026-04-14 16:33 852K
20260414T12Z_MSC_GDPS_WindV_IsbL-0050_LatLon0.15_PT144H.grib2 2026-04-14 16:33 904K
20260414T12Z_MSC_GDPS_WindV_IsbL-0100_LatLon0.15_PT144H.grib2 2026-04-14 16:33 1.1M
20260414T12Z_MSC_GDPS_WindV_IsbL-0150_LatLon0.15_PT144H.grib2 2026-04-14 16:33 1.0M
20260414T12Z_MSC_GDPS_WindV_IsbL-0175_LatLon0.15_PT144H.grib2 2026-04-14 16:33 1.0M
20260414T12Z_MSC_GDPS_WindV_IsbL-0200_LatLon0.15_PT144H.grib2 2026-04-14 16:33 843K
20260414T12Z_MSC_GDPS_WindV_IsbL-0225_LatLon0.15_PT144H.grib2 2026-04-14 16:33 849K
20260414T12Z_MSC_GDPS_WindV_IsbL-0250_LatLon0.15_PT144H.grib2 2026-04-14 16:33 907K
20260414T12Z_MSC_GDPS_WindV_IsbL-0275_LatLon0.15_PT144H.grib2 2026-04-14 16:33 934K
20260414T12Z_MSC_GDPS_WindV_IsbL-0300_LatLon0.15_PT144H.grib2 2026-04-14 16:33 923K
20260414T12Z_MSC_GDPS_WindV_IsbL-0350_LatLon0.15_PT144H.grib2 2026-04-14 16:33 934K
20260414T12Z_MSC_GDPS_WindV_IsbL-0400_LatLon0.15_PT144H.grib2 2026-04-14 16:33 933K
20260414T12Z_MSC_GDPS_WindV_IsbL-0450_LatLon0.15_PT144H.grib2 2026-04-14 16:33 875K
20260414T12Z_MSC_GDPS_WindV_IsbL-0500_LatLon0.15_PT144H.grib2 2026-04-14 16:33 878K
20260414T12Z_MSC_GDPS_WindV_IsbL-0550_LatLon0.15_PT144H.grib2 2026-04-14 16:33 1.1M
20260414T12Z_MSC_GDPS_WindV_IsbL-0600_LatLon0.15_PT144H.grib2 2026-04-14 16:33 1.1M
20260414T12Z_MSC_GDPS_WindV_IsbL-0650_LatLon0.15_PT144H.grib2 2026-04-14 16:33 1.2M
20260414T12Z_MSC_GDPS_WindV_IsbL-0700_LatLon0.15_PT144H.grib2 2026-04-14 16:33 1.2M
20260414T12Z_MSC_GDPS_WindV_IsbL-0750_LatLon0.15_PT144H.grib2 2026-04-14 16:33 1.3M
20260414T12Z_MSC_GDPS_WindV_IsbL-0800_LatLon0.15_PT144H.grib2 2026-04-14 16:33 1.3M
20260414T12Z_MSC_GDPS_WindV_IsbL-0850_LatLon0.15_PT144H.grib2 2026-04-14 16:33 1.4M
20260414T12Z_MSC_GDPS_WindV_IsbL-0875_LatLon0.15_PT144H.grib2 2026-04-14 16:33 1.4M
20260414T12Z_MSC_GDPS_WindV_IsbL-0900_LatLon0.15_PT144H.grib2 2026-04-14 16:33 1.4M
20260414T12Z_MSC_GDPS_WindV_IsbL-0925_LatLon0.15_PT144H.grib2 2026-04-14 16:33 1.4M
20260414T12Z_MSC_GDPS_WindV_IsbL-0950_LatLon0.15_PT144H.grib2 2026-04-14 16:33 1.4M
20260414T12Z_MSC_GDPS_WindV_IsbL-0970_LatLon0.15_PT144H.grib2 2026-04-14 16:33 1.4M
20260414T12Z_MSC_GDPS_WindV_IsbL-0985_LatLon0.15_PT144H.grib2 2026-04-14 16:33 1.4M
20260414T12Z_MSC_GDPS_WindV_IsbL-1000_LatLon0.15_PT144H.grib2 2026-04-14 16:33 1.7M
20260414T12Z_MSC_GDPS_WindV_IsbL-1015_LatLon0.15_PT144H.grib2 2026-04-14 16:33 1.6M